Location: Ku?niki
(51.4449°N, 17.8974°E)
Time: 11:29:35
(UTC+00:00)

Spot 2 Rocket - Pass Details

Date: 18 September 2020
Orbit: 758 x 771 km, 98.6° (Epoch: 30 October)

Event Time Altitude Azimuth Distance (km) Brightness Sun altitude
Exits shadow 19:48:05 82° 145° (SE) 774 3.3 -25.6°
Maximum altitude 19:48:19 87° 75° (ENE) 767 3.3 -25.6°
Drops below altitude 10° 19:53:24 10° 345° (NNW) 2,301 6.7 -26.2°
Sets 19:55:42 0° 346° (NNW) 3,231 7.6 -26.5°
